Girona, Spain

7:45 AM CEST on April 26, 2017 (GMT +0200)
Girona

Weather History for LEGE - April, 2013

Change the Weather History Date:

Saturday, April 6, 2013

  Actual Average Record
Temperature  
Mean Temperature 47 °F -  
Max Temperature 53 °F 67 °F 78 °F (1997)
Min Temperature 41 °F 45 °F 37 °F (1998)
Degree Days  
Heating Degree Days 18    
Moisture  
Dew Point 41 °F    
Average Humidity 82    
Maximum Humidity 100    
Minimum Humidity 49    
Precipitation  
Precipitation 0.04 in 0.10 in - ()
Sea Level Pressure  
Sea Level Pressure 29.82 in    
Wind  
Wind Speed 3 mph ()    
Max Wind Speed 12 mph    
Max Gust Speed 14 mph    
Visibility 6.2 miles    
Events Rain    
Averages and records for this station are not official NWS values.
T = Trace of Precipitation, MM = Missing Value Source: Averaged Metar Reports

Daily Weather History Graph

Daily Weather History Graph

Search for Another Location

Airport or City:

Trip Planner

Search our weather history database for the weather conditions in past years. The results will help you decide how hot, cold, wet, or windy it might be!

Date:

Astronomy

Apr. 06, 2013 Rise Set
Actual Time 7:23 AM CEST 8:20 PM CEST
Civil Twilight 6:54 AM CEST 8:48 PM CEST
Nautical Twilight 6:21 AM CEST 9:22 PM CEST
Astronomical Twilight 5:46 AM CEST 9:57 PM CEST
Moon 5:01 AM CEST (4/6) 4:28 PM CEST (4/6)
Length of Visible Light 13h 53m
Length of Day
12h 56m
Waning Crescent, 17% of the Moon is Illuminated
Apr 6
Waning Crescent
Apr 10
New
Apr 18
First Quarter
Apr 25
Full
May 2
Last Quarter

Hourly Weather History & Observations

Time (CEST) Temp. Windchill Dew Point Humidity Pressure Visibility Wind Dir Wind Speed Gust Speed Precip Events Conditions
12:30 AM 42.8 °F 40.1 °F 41.0 °F 93% 29.77 in 3.7 mi WNW 4.6 mph - N/A   Mostly Cloudy
1:00 AM 42.8 °F 41.1 °F 41.0 °F 93% 29.77 in 3.7 mi WNW 3.5 mph - N/A   Light Drizzle
1:30 AM 42.8 °F 41.1 °F 41.0 °F 93% 29.77 in 3.7 mi WNW 3.5 mph - N/A   Light Drizzle
2:00 AM 42 °F - 40 °F 91% 29.78 in 5 mi WNW 3.5 mph - - Rain Light Drizzle
2:00 AM 42.8 °F - 41.0 °F 93% 29.77 in 5.0 mi Variable 2.3 mph - N/A   Mostly Cloudy
2:30 AM 42.8 °F 40.1 °F 41.0 °F 93% 29.77 in 5.0 mi NW 4.6 mph - N/A   Drizzle
3:00 AM 42.8 °F 41.1 °F 41.0 °F 93% 29.77 in 5.0 mi WNW 3.5 mph - N/A   Drizzle
3:30 AM 42.8 °F 41.1 °F 41.0 °F 93% 29.77 in 5.0 mi WNW 3.5 mph - N/A   Mostly Cloudy
4:00 AM 41.0 °F - 41.0 °F 100% 29.77 in 5.0 mi West 2.3 mph - N/A   Mostly Cloudy
4:30 AM 42.8 °F 40.1 °F 41.0 °F 93% 29.77 in 5.0 mi WSW 4.6 mph - N/A   Light Drizzle
5:00 AM 42.8 °F 39.3 °F 41.0 °F 93% 29.77 in 5.0 mi West 5.8 mph - N/A   Light Drizzle
5:30 AM 41.0 °F - 41.0 °F 100% 29.77 in 5.0 mi Variable 2.3 mph - N/A   Mostly Cloudy
6:00 AM 41.0 °F - 41.0 °F 100% 29.77 in 5.0 mi Calm Calm - N/A   Mostly Cloudy
6:30 AM 41.0 °F - 41.0 °F 100% 29.77 in 5.0 mi Calm Calm - N/A   Mostly Cloudy
7:00 AM 41.0 °F - 41.0 °F 100% 29.77 in 5.0 mi South 2.3 mph - N/A   Mostly Cloudy
7:30 AM 41.0 °F - 41.0 °F 100% 29.77 in 6.2 mi South 2.3 mph - N/A   Scattered Clouds
8:00 AM 41 °F - 40 °F 97% 29.81 in 9 mi Calm Calm - -   Overcast
8:00 AM 41.0 °F - 41.0 °F 100% 29.80 in 6.2 mi Variable 1.2 mph - N/A   Scattered Clouds
8:30 AM 42.8 °F - 41.0 °F 93% 29.80 in 6.2 mi Calm Calm - N/A   Mostly Cloudy
9:00 AM 42.8 °F - 41.0 °F 93% 29.80 in 6.2 mi Calm Calm - N/A   Scattered Clouds
9:30 AM 44.6 °F - 41.0 °F 87% 29.80 in 6.2 mi Calm Calm - N/A   Scattered Clouds
10:00 AM 44.6 °F - 41.0 °F 87% 29.80 in 6.2 mi SW 1.2 mph - N/A   Scattered Clouds
10:30 AM 46.4 °F - 41.0 °F 81% 29.80 in 6.2 mi Calm Calm - N/A   Scattered Clouds
11:00 AM 48.2 °F - 41.0 °F 76% 29.80 in 6.2 mi SW 1.2 mph - N/A   Scattered Clouds
11:30 AM 50.0 °F - 42.8 °F 76% 29.80 in 6.2 mi SSW 1.2 mph - N/A   Scattered Clouds
12:00 PM 50.0 °F - 39.2 °F 66% 29.80 in 6.2 mi Variable 1.2 mph - N/A   Scattered Clouds
12:30 PM 50.0 °F - 39.2 °F 66% 29.80 in 6.2 mi SSE 3.5 mph - N/A   Mostly Cloudy
1:00 PM 50.0 °F - 37.4 °F 62% 29.80 in 6.2 mi South 1.2 mph - N/A   Mostly Cloudy
1:30 PM 51.8 °F - 37.4 °F 58% 29.80 in 6.2 mi SE 1.2 mph - N/A   Overcast
2:00 PM 53 °F - 39 °F 49% 29.80 in 16 mi SSW 2.3 mph - -   Overcast
2:00 PM 51.8 °F - 35.6 °F 54% 29.80 in 6.2 mi Variable 2.3 mph - N/A   Overcast
2:30 PM 51.8 °F - 37.4 °F 58% 29.80 in 6.2 mi Variable 2.3 mph - N/A   Mostly Cloudy
3:00 PM 51.8 °F - 37.4 °F 58% 29.80 in 6.2 mi South 5.8 mph - N/A   Mostly Cloudy
3:30 PM 51.8 °F - 42.8 °F 71% 29.80 in 6.2 mi SSW 9.2 mph - N/A   Mostly Cloudy
3:47 PM 51.8 °F - 39.2 °F 62% 29.80 in 6.2 mi SW 8.1 mph - N/A Rain Light Rain Showers
4:00 PM 50.0 °F - 39.2 °F 66% 29.80 in 6.2 mi SSW 10.4 mph - N/A   Mostly Cloudy
4:09 PM 50.0 °F - 39.2 °F 66% 29.80 in 6.2 mi South 10.4 mph - N/A Rain Light Rain Showers
4:30 PM 50.0 °F - 39.2 °F 66% 29.80 in 6.2 mi South 11.5 mph - N/A   Mostly Cloudy
5:00 PM 50.0 °F - 39.2 °F 66% 29.83 in 6.2 mi SSE 8.1 mph - N/A   Mostly Cloudy
5:30 PM 50.0 °F - 37.4 °F 62% 29.83 in 6.2 mi South 9.2 mph - N/A   Mostly Cloudy
6:00 PM 50.0 °F - 39.2 °F 66% 29.83 in 6.2 mi South 6.9 mph - N/A   Mostly Cloudy
6:30 PM 50.0 °F - 37.4 °F 62% 29.86 in 6.2 mi South 6.9 mph - N/A Rain Light Rain
7:00 PM 48.2 °F - 39.2 °F 71% 29.86 in 6.2 mi South 3.5 mph - N/A   Mostly Cloudy
7:30 PM 48.2 °F - 41.0 °F 76% 29.89 in 6.2 mi East 3.5 mph - N/A Rain Light Rain
8:00 PM 47 °F - 42 °F 75% 29.89 in 16 mi East 2.3 mph - - Rain Light Rain
8:00 PM 48.2 °F - 41.0 °F 76% 29.89 in 6.2 mi Variable 2.3 mph 13.8 mph N/A Rain Light Rain
8:30 PM 46.4 °F - 42.8 °F 87% 29.89 in 6.2 mi Variable 1.2 mph - N/A Rain Light Rain
9:00 PM 46.4 °F - 42.8 °F 87% 29.89 in 6.2 mi SE 1.2 mph - N/A Rain Light Rain
9:30 PM 44.6 °F - 44.6 °F 100% 29.92 in 6.2 mi Variable 1.2 mph - N/A Rain Light Rain
10:00 PM 44.6 °F 43.1 °F 44.6 °F 100% 29.92 in 6.2 mi West 3.5 mph - N/A Rain Light Rain
10:30 PM 44.6 °F - 44.6 °F 100% 29.92 in 6.2 mi Calm Calm - N/A Rain Light Rain
11:00 PM 44.6 °F - 44.6 °F 100% 29.92 in 6.2 mi Calm Calm - N/A Rain Light Rain
11:30 PM 44.6 °F - 44.6 °F 100% 29.92 in 6.2 mi South 1.2 mph - N/A   Light Drizzle